sat.trackr.live / text

‹ back to catalog

STARLINK-33560

NORAD 62282 · 2024-237R

PAYLOAD ACTIVE UNKNOWN

§ Identity

Operator
Country
US
Launch date
2024-12-08
Launch site
AFETR
Launch vehicle
Mass (kg)
RCS (m²)

Purposes: comms

External: N2YO · Heavens-Above · Gunter

§ Orbital elements

Epoch: 2026-05-25T00:09:30.335904Z

Period
94.27 min
Inclination
42.9993°
Eccentricity
0.0001638
Mean motion
15.27588507 rev/d
Perigee alt
481.9 km
Apogee alt
484.1 km
Semi-major
6,861.2 km
B*
4.9145e-4
RAAN
145.3552°
Arg perigee
262.4571°
Mean anomaly
97.6095°
Rev number
8,277

§ Raw data

STARLINK-335601 62282U 24237R   26145.00660111  .00013289  00000+0  49145-3 0  99992 62282  42.9993 145.3552 0001638 262.4571  97.6095 15.27588507 82776

JSON: /api/v1/satellites/62282 · /tle

For live sub-satellite position, see the globe view (requires WebGL).

§ Visibility from observer

Set your observer location to see the next 7 days of passes ≥ 10°. The values pass through the URL so the page stays shareable.

No JS? Fill the form by hand. The geolocation button needs JavaScript.